TimeEDT,TemperatureF,Dew PointF,Humidity,Sea Level PressureIn,VisibilityMPH,Wind Direction,Wind SpeedMPH,Gust SpeedMPH,PrecipitationIn,Events,Conditions,WindDirDegrees,DateUTC
12:53 AM,73.0,70.0,90,29.93,10.0,Calm,Calm,-,N/A,,Clear,0,2013-09-13 04:53:00
1:53 AM,71.1,69.1,93,29.91,10.0,Calm,Calm,-,N/A,,Clear,0,2013-09-13 05:53:00
2:53 AM,72.0,69.1,91,29.91,10.0,Calm,Calm,-,N/A,,Clear,0,2013-09-13 06:53:00
3:53 AM,72.0,69.1,91,29.89,10.0,Calm,Calm,-,N/A,,Clear,0,2013-09-13 07:53:00
4:53 AM,71.1,69.1,93,29.88,10.0,Calm,Calm,-,N/A,,Clear,0,2013-09-13 08:53:00
5:53 AM,70.0,68.0,93,29.88,10.0,Calm,Calm,-,N/A,,Clear,0,2013-09-13 09:53:00
6:53 AM,70.0,68.0,93,29.88,10.0,Calm,Calm,-,N/A,,Clear,0,2013-09-13 10:53:00
7:53 AM,71.1,69.1,93,29.90,10.0,Calm,Calm,-,N/A,,Clear,0,2013-09-13 11:53:00
8:53 AM,75.9,71.1,85,29.90,10.0,SW,4.6,-,N/A,,Clear,220,2013-09-13 12:53:00
9:53 AM,81.0,73.0,77,29.91,10.0,West,3.5,-,N/A,,Clear,270,2013-09-13 13:53:00
10:53 AM,84.9,71.1,63,29.91,10.0,Calm,Calm,-,N/A,,Clear,0,2013-09-13 14:53:00
11:53 AM,88.0,70.0,55,29.90,10.0,Calm,Calm,-,N/A,,Clear,0,2013-09-13 15:53:00
12:53 PM,89.1,64.9,45,29.88,10.0,Calm,Calm,-,N/A,,Partly Cloudy,0,2013-09-13 16:53:00
1:53 PM,89.1,66.9,48,29.86,10.0,NW,6.9,-,N/A,,Partly Cloudy,310,2013-09-13 17:53:00
2:53 PM,90.0,64.9,43,29.83,10.0,Variable,5.8,-,N/A,,Clear,0,2013-09-13 18:53:00
3:53 PM,91.0,64.9,42,29.81,10.0,NW,8.1,-,N/A,,Partly Cloudy,320,2013-09-13 19:53:00
4:53 PM,91.0,64.0,41,29.80,10.0,West,6.9,-,N/A,,Partly Cloudy,280,2013-09-13 20:53:00
5:53 PM,90.0,64.0,42,29.80,10.0,NW,5.8,-,N/A,,Clear,310,2013-09-13 21:53:00
6:53 PM,88.0,64.9,46,29.80,10.0,NW,4.6,-,N/A,,Clear,310,2013-09-13 22:53:00
7:53 PM,79.0,70.0,74,29.81,10.0,Calm,Calm,-,N/A,,Clear,0,2013-09-13 23:53:00
8:53 PM,77.0,70.0,79,29.83,10.0,Calm,Calm,-,N/A,,Clear,0,2013-09-14 00:53:00
9:53 PM,75.0,69.1,82,29.85,10.0,West,5.8,-,N/A,,Clear,270,2013-09-14 01:53:00
10:53 PM,73.9,69.1,85,29.86,10.0,West,4.6,-,N/A,,Clear,260,2013-09-14 02:53:00
11:53 PM,73.9,69.1,85,29.86,10.0,WNW,5.8,-,N/A,,Clear,290,2013-09-14 03:53:00